707  
ASUS41 KBOX 081304  
RWRBOX  
 
REGIONAL WEATHER ROUNDUP  
NATIONAL WEATHER SERVICE BOSTON/NORTON MA  
900 AM EDT WED APR 08 2020  
 
NOTE: "FAIR" INDICATES FEW OR NO CLOUDS BELOW 12,000 FEET WITH NO  
SIGNIFICANT WEATHER AND/OR S TO VISIBILITY
.  
 
MAZALL-081400-  
EASTERN MASSACHUSETTS  
 
CITY SKY/WX TMP DP RH WIND PRES REMARKS
 
BOSTON LGT RAIN 44 40 85 NE9 29.55F  
BEVERLY LGT RAIN 44 41 89 N7 29.56F  
LAWRENCE LGT RAIN 43 41 93 NE8 29.58F  
BEDFORD LGT RAIN 44 43 96 NE5 29.55F  
BLUE HILL N/A 41 40 96 NE12G21 29.52F  
NORWOOD CLOUDY 46 40 79 NE9 29.55S  
MARSHFIELD LGT RAIN 46 43 87 VRB6G12 29.54F  
PLYMOUTH LGT RAIN 45 41 86 NE8 29.53F  
TAUNTON CLOUDY 44 41 89 CALM 29.53S  
NEW BEDFORD CLOUDY 44 42 93 NE8 29.52S  

 
 
MAZALL-081400-  
CAPE COD AND THE ISLANDS  
 
CITY SKY/WX TMP DP RH WIND PRES REMARKS
 
FALMOUTH CLOUDY 45 41 87 NE9 29.53F  
HYANNIS CLOUDY 46 42 86 NE8 29.52S  
CHATHAM LGT RAIN 46 42 86 NE3 29.55R  
PROVINCETOWN LGT RAIN 44 42 93 NE6 29.56S  
NANTUCKET CLOUDY 47 46 97 CALM 29.53R  
MARTHAS VNYRD CLOUDY 47 44 90 NE7 29.51F  

 
 
MAZALL-081400-  
CENTRAL AND WESTERN MASSACHUSETTS  
 
CITY SKY/WX TMP DP RH WIND PRES REMARKS
 
WORCESTER CLOUDY 41 37 86 NE9 29.54S  
FITCHBURG LGT RAIN 43 37 79 CALM 29.57S  
ORANGE CLOUDY 46 35 65 N3 29.57S  
SPRINGFIELD CLOUDY 45 42 89 N5 29.55R  
WESTFIELD CLOUDY 45 42 89 N5 29.56S  
NORTH ADAMS CLOUDY 44 37 76 CALM 29.56S  
PITTSFIELD CLOUDY 43 32 65 NE6 29.53S  

 
 
RIZALL-081400-  
RHODE ISLAND  
 
CITY SKY/WX TMP DP RH WIND PRES REMARKS
 
PROVIDENCE CLOUDY 45 41 86 N9 29.54S  
NEWPORT CLOUDY 47 39 74 NE5 29.52S  
BLOCK ISLAND CLOUDY 45 43 93 NE8 29.51S  
SMITHFIELD CLOUDY 43 41 93 N7 29.54S  
WESTERLY CLOUDY 48 42 80 N7 29.53S  

 
 
CTZALL-081400-  
CONNECTICUT  
 
CITY SKY/WX TMP DP RH WIND PRES REMARKS
 
BRADLEY INTL DRIZZLE 45 43 93 N7 29.56R FOG  
HARTFORD CLOUDY 47 44 90 N7 29.55S FOG  
BRIDGEPORT CLOUDY 49 44 83 NE12 29.53R  
DANBURY CLOUDY 46 43 89 NE8 29.54S  
GROTON CLOUDY 46 44 93 NE7 29.52S  
NEW HAVEN CLOUDY 49 46 90 N7 29.53R  
CHESTER CLOUDY 46 45 93 N8 29.52S  
MERIDEN CLOUDY 46 44 93 VRB5 29.54S FOG  
WILLIMANTIC CLOUDY 45 42 89 NE9 29.54S FOG  
OXFORD CLOUDY 45 45 100 NE12G17 29.53S FOG  

 
 
MEZ002-015-021-024-NHZ003-005-008-011-012-014-VTZ005-008-081400-  
NORTHERN NEW ENGLAND  
 
CITY SKY/WX TMP DP RH WIND PRES REMARKS
 
PORTLAND ME FAIR 43 33 68 N9 29.60S  
BANGOR ME FAIR 39 22 50 N9 29.64S  
CONCORD NH CLOUDY 42 28 57 W3 29.58S  
MANCHESTER NH CLOUDY 45 32 60 E5 29.56S  
NASHUA NH CLOUDY 45 38 76 VRB3 29.57F  
PORTSMOUTH NH CLOUDY 42 35 77 N7 29.57S  
JAFFREY NH CLOUDY 45 34 65 CALM 29.55S  
KEENE NH CLOUDY 45 33 63 CALM 29.57S  
BURLINGTON VT PTSUNNY 38 27 64 NW8 29.62S  
MT. WASHINGTON MOSUNNY 19 5 53 NW18G24 N/A WCI 4  

 
 
NYZ052-076-081400-  
EASTERN NEW YORK  
 
CITY SKY/WX TMP DP RH WIND PRES REMARKS
 
ALBANY CLOUDY 46 38 73 N6 29.58S  
NEW YORK CITY CLOUDY 50 47 89 NE10 29.52R FOG  

 
 
ANZALL-081400-  
MARINE OBSERVATIONS  
 
STATION/POSITION TIME TEMP WIND PRES VSBY WAVE
 
AIR SEA DIR/SP/G HT/PER  
(UTC) (F) (DEG/KT/KT) (MB) (MI) (FT/S)  
BOSTON BUOY 1250 44 43 30/ 8/ 10 1000.3F 2/11  
BUZZARDS BAY 1200 90/ 3/ 4 1001.0R  
NANTUCKET SOUND 1240 N/A 0  
MASS BAY-STELLWA 1204 44 42 50/ 6/ 8 999.4R 1 7/8 2/11  
ISLE OF SHOALS 1200 40 30/ 14/ 15 1001.1R  
S OF BLOCK IS 1230 44 N/A 2/11  

 
   
.....................KEY......................
 
 
SKY/WX - SKY CONDITION/PRESENT WEATHER  
TMP - TEMPERATURE IN FAHRENHEIT  
DWPT - DEWPOINT IN FAHRENHEIT  
RH - RELATIVE HUMIDITY IN PERCENT  
WIND - DIRECTION AND SPEED IN MPH  
PRES - MEAN SEA LEVEL PRESSURE IN INCHES OF HG  
WCI - WIND CHILL INDEX  
VSB - VISIBILITY IN MILES  
HX - HEAT INDEX  
TC - TEMPERATURE IN CELSIUS  
VRB - VARIABLE WIND DIRECTION  
N/A - NOT AVAILABLE  
 
 
CLICK HERE TO GO TO PREVIOUS BULLETINS.

The Nexlab MA Page
The Nexlab RI Page
The Nexlab NH Page
The Nexlab CT Page Main Text Page